| time (UTC) | temp F | wind direction | speed MPH | gust MPH | rain 1hr in | rain 24hr in | rain mn in | humidity % | barometer mb |
| 20260503192203 | 53 | 269 | 6.0 | 15.0 | 0.00 | 0.00 | 0.00 | 60 | 1010.9 |
| 20260503191202 | 53 | 241 | 6.0 | 17.0 | 0.00 | 0.00 | 0.00 | 59 | 1011.0 |
| 20260503190203 | 53 | 281 | 9.0 | 19.0 | 0.00 | 0.00 | 0.00 | 58 | 1011.1 |
| 20260503185203 | 54 | 253 | 6.0 | 23.0 | 0.00 | 0.00 | 0.00 | 56 | 1011.2 |
| 20260503184202 | 54 | 277 | 7.0 | 19.0 | 0.00 | 0.00 | 0.00 | 56 | 1011.3 |
| 20260503183202 | 54 | 254 | 8.0 | 18.0 | 0.00 | 0.00 | 0.00 | 55 | 1011.5 |
| 20260503182205 | 55 | 238 | 5.0 | 14.0 | 0.00 | 0.00 | 0.00 | 52 | 1011.6 |
| 20260503181202 | 54 | 252 | 5.0 | 12.0 | 0.00 | 0.00 | 0.00 | 55 | 1011.6 |
| 20260503180202 | 53 | 227 | 5.0 | 16.0 | 0.00 | 0.00 | 0.00 | 54 | 1011.8 |
| 20260503175202 | 53 | 219 | 4.0 | 12.0 | 0.00 | 0.00 | 0.00 | 59 | 1011.9 |
| 20260503174224 | 51 | 242 | 4.0 | 12.0 | 0.00 | 0.00 | 0.00 | 60 | 1012.2 |
| 20260503173202 | 51 | 255 | 3.0 | 11.0 | 0.00 | 0.00 | 0.00 | 61 | 1012.3 |
| 20260503172203 | 52 | 228 | 4.0 | 10.0 | 0.00 | 0.00 | 0.00 | 64 | 1012.6 |
| 20260503171225 | 52 | 227 | 4.0 | 12.0 | 0.00 | 0.00 | 0.00 | 62 | 1012.6 |
| 20260503170202 | 51 | 222 | 4.0 | 16.0 | 0.00 | 0.00 | 0.00 | 60 | 1012.7 |
| 20260503160203 | 51 | 238 | 4.0 | 8.0 | 0.00 | 0.00 | 0.00 | 58 | 1013.4 |
| 20260503150202 | 49 | 242 | 5.0 | 12.0 | 0.00 | 0.00 | 0.00 | 64 | 1013.8 |
| 20260503140204 | 47 | 269 | 6.0 | 16.0 | 0.00 | 0.00 | 0.00 | 75 | 1014.0 |
| 20260503131202 | 45 | 265 | 4.0 | 12.0 | 0.00 | 0.00 | 0.00 | 80 | 1014.2 |
| 20260503130223 | 44 | 211 | 3.0 | 9.0 | 0.00 | 0.00 | 0.00 | 81 | 1014.2 |
| 20260503120202 | 38 | 235 | 1.0 | 3.0 | 0.00 | 0.00 | 0.00 | 89 | 1014.3 |
| 20260503110225 | 32 | 242 | 0.0 | 0.0 | 0.00 | 0.00 | 0.00 | 89 | 1014.4 |
| 20260503100204 | 30 | 242 | 0.0 | 0.0 | 0.00 | 0.00 | 0.00 | 88 | 1014.3 |
| 20260503090202 | 30 | 242 | 0.0 | 0.0 | 0.00 | 0.00 | 0.00 | 87 | 1014.6 |
| 20260503081201 | 31 | 242 | 0.0 | 0.0 | 0.00 | 0.00 | 0.00 | 86 | 1014.7 |
| 20260503080204 | 31 | 242 | 0.0 | 0.0 | 0.00 | 0.00 | 0.00 | 86 | 1014.7 |
| 20260503072203 | 31 | 242 | 0.0 | 0.0 | 0.00 | 0.00 | 0.00 | 85 | 1014.6 |
| 20260503071225 | 31 | 242 | 0.0 | 0.0 | 0.00 | 0.00 | 0.00 | 84 | 1014.6 |
| 20260503070226 | 31 | 242 | 0.0 | 0.0 | 0.00 | 0.00 | 0.00 | 84 | 1014.5 |
| 20260503060204 | 33 | 242 | 0.0 | 0.0 | 0.00 | 0.00 | 0.00 | 83 | 1014.9 |
| 20260503054202 | 34 | 242 | 0.0 | 0.0 | 0.00 | 0.00 | 0.00 | 83 | 1014.9 |
| 20260503053202 | 34 | 242 | 0.0 | 0.0 | 0.00 | 0.00 | 0.00 | 82 | 1014.9 |
| 20260503052203 | 34 | 242 | 0.0 | 0.0 | 0.00 | 0.00 | 0.00 | 82 | 1015.0 |
| 20260503051204 | 35 | 242 | 0.0 | 0.0 | 0.00 | 0.00 | 0.00 | 81 | 1015.1 |
| 20260503050202 | 35 | 242 | 0.0 | 0.0 | 0.00 | 0.00 | 0.00 | 81 | 1015.2 |
| 20260503045203 | 36 | 242 | 0.0 | 0.0 | 0.00 | 0.00 | 0.00 | 80 | 1015.1 |
| 20260503044202 | 36 | 242 | 0.0 | 0.0 | 0.00 | 0.00 | 0.00 | 80 | 1015.2 |
| 20260503043223 | 37 | 242 | 0.0 | 0.0 | 0.00 | 0.00 | 0.00 | 79 | 1015.3 |
| 20260503042202 | 37 | 242 | 0.0 | 0.0 | 0.00 | 0.00 | 0.00 | 79 | 1015.3 |
| 20260503041202 | 38 | 242 | 0.0 | 0.0 | 0.00 | 0.00 | 0.00 | 78 | 1015.4 |
| 20260503040224 | 39 | 242 | 0.0 | 0.0 | 0.00 | 0.00 | 0.00 | 78 | 1015.4 |
| 20260503035202 | 39 | 242 | 0.0 | 0.0 | 0.00 | 0.00 | 0.00 | 78 | 1015.4 |
| 20260503034202 | 40 | 242 | 0.0 | 0.0 | 0.00 | 0.00 | 0.00 | 78 | 1015.4 |
| 20260503033223 | 40 | 242 | 0.0 | 0.0 | 0.00 | 0.00 | 0.00 | 78 | 1015.4 |
| 20260503032203 | 40 | 242 | 0.0 | 0.0 | 0.00 | 0.00 | 0.00 | 77 | 1015.4 |
| 20260503031202 | 40 | 242 | 0.0 | 0.0 | 0.00 | 0.00 | 0.00 | 76 | 1015.4 |
| 20260503030202 | 40 | 242 | 0.0 | 0.0 | 0.00 | 0.00 | 0.00 | 75 | 1015.5 |
| 20260503025203 | 41 | 242 | 0.0 | 0.0 | 0.00 | 0.00 | 0.00 | 75 | 1015.6 |
| 20260503024202 | 41 | 242 | 0.0 | 0.0 | 0.00 | 0.00 | 0.00 | 74 | 1015.6 |
| 20260503023204 | 41 | 242 | 0.0 | 0.0 | 0.00 | 0.00 | 0.00 | 73 | 1015.6 |
| 20260503022202 | 41 | 242 | 0.0 | 0.0 | 0.00 | 0.00 | 0.00 | 74 | 1015.7 |
| 20260503021204 | 41 | 242 | 0.0 | 2.0 | 0.00 | 0.00 | 0.00 | 75 | 1015.8 |
| 20260503020202 | 41 | 241 | 0.0 | 1.0 | 0.00 | 0.00 | 0.00 | 74 | 1015.8 |
| 20260503015203 | 41 | 242 | 0.0 | 3.0 | 0.00 | 0.00 | 0.00 | 74 | 1015.8 |
| 20260503014202 | 41 | 241 | 1.0 | 3.0 | 0.00 | 0.00 | 0.00 | 74 | 1015.8 |
| 20260503013205 | 41 | 241 | 1.0 | 5.0 | 0.00 | 0.00 | 0.00 | 74 | 1015.8 |
| 20260503012245 | 41 | 288 | 2.0 | 7.0 | 0.00 | 0.00 | 0.00 | 74 | 1015.9 |
| 20260503011202 | 41 | 283 | 4.0 | 8.0 | 0.00 | 0.00 | 0.00 | 74 | 1015.8 |
| 20260503010202 | 41 | 291 | 2.0 | 7.0 | 0.00 | 0.00 | 0.00 | 73 | 1015.8 |
| 20260503005202 | 41 | 262 | 1.0 | 5.0 | 0.00 | 0.00 | 0.00 | 73 | 1015.7 |
| 20260503004224 | 41 | 284 | 2.0 | 8.0 | 0.00 | 0.00 | 0.00 | 73 | 1015.7 |
| 20260503003201 | 42 | 301 | 1.0 | 6.0 | 0.00 | 0.00 | 0.00 | 72 | 1015.5 |
| 20260503002223 | 42 | 265 | 1.0 | 4.0 | 0.00 | 0.00 | 0.00 | 72 | 1015.4 |
| 20260503001202 | 42 | 249 | 1.0 | 7.0 | 0.00 | 0.00 | 0.00 | 71 | 1015.4 |
| 20260503000204 | 42 | 295 | 1.0 | 7.0 | 0.00 | 0.00 | 0.00 | 71 | 1015.4 |
| 20260502235202 | 42 | 266 | 0.0 | 9.0 | 0.00 | 0.00 | 0.00 | 70 | 1015.4 |
| 20260502234203 | 42 | 266 | 4.0 | 10.0 | 0.00 | 0.00 | 0.00 | 69 | 1015.3 |
| 20260502233248 | 42 | 285 | 2.0 | 8.0 | 0.00 | 0.00 | 0.00 | 69 | 1015.3 |
| 20260502232203 | 42 | 289 | 3.0 | 8.0 | 0.00 | 0.00 | 0.00 | 68 | 1015.4 |
| 20260502231202 | 42 | 301 | 3.0 | 10.0 | 0.00 | 0.00 | 0.00 | 69 | 1015.3 |
| 20260502230203 | 43 | 265 | 3.0 | 7.0 | 0.00 | 0.00 | 0.00 | 69 | 1015.2 |
| 20260502225202 | 43 | 233 | 2.0 | 6.0 | 0.00 | 0.00 | 0.00 | 68 | 1015.2 |
| 20260502224202 | 43 | 291 | 4.0 | 7.0 | 0.00 | 0.00 | 0.00 | 68 | 1015.2 |
| 20260502223202 | 43 | 308 | 2.0 | 7.0 | 0.00 | 0.00 | 0.00 | 68 | 1015.2 |
| 20260502222223 | 43 | 247 | 3.0 | 7.0 | 0.00 | 0.00 | 0.00 | 68 | 1015.2 |
| 20260502221202 | 43 | 284 | 2.0 | 8.0 | 0.00 | 0.00 | 0.00 | 68 | 1015.1 |
| 20260502220202 | 43 | 298 | 3.0 | 11.0 | 0.00 | 0.00 | 0.00 | 67 | 1015.2 |
| 20260502215203 | 43 | 281 | 7.0 | 11.0 | 0.00 | 0.00 | 0.00 | 68 | 1015.2 |
| 20260502214202 | 43 | 292 | 3.0 | 10.0 | 0.00 | 0.00 | 0.00 | 69 | 1015.1 |
| 20260502213202 | 43 | 286 | 7.0 | 12.0 | 0.00 | 0.00 | 0.00 | 69 | 1015.2 |
| 20260502212202 | 43 | 266 | 1.0 | 8.0 | 0.00 | 0.00 | 0.00 | 70 | 1015.1 |
| 20260502211204 | 43 | 276 | 3.0 | 9.0 | 0.00 | 0.00 | 0.00 | 71 | 1015.0 |
| 20260502210203 | 43 | 219 | 3.0 | 8.0 | 0.00 | 0.00 | 0.00 | 71 | 1015.0 |
| 20260502205204 | 43 | 243 | 3.0 | 8.0 | 0.00 | 0.00 | 0.00 | 71 | 1015.0 |
| 20260502204224 | 43 | 276 | 3.0 | 8.0 | 0.00 | 0.00 | 0.00 | 72 | 1015.1 |
| 20260502202223 | 43 | 266 | 3.0 | 9.0 | 0.00 | 0.00 | 0.00 | 71 | 1015.2 |
| 20260502201201 | 43 | 287 | 7.0 | 13.0 | 0.00 | 0.00 | 0.00 | 71 | 1015.3 |
| 20260502200223 | 42 | 300 | 2.0 | 12.0 | 0.00 | 0.00 | 0.00 | 71 | 1015.3 |
| 20260502195202 | 42 | 230 | 4.0 | 10.0 | 0.00 | 0.00 | 0.00 | 71 | 1015.4 |
| 20260502194203 | 42 | 223 | 3.0 | 8.0 | 0.00 | 0.00 | 0.00 | 70 | 1015.5 |
| 20260502193223 | 42 | 275 | 2.0 | 8.0 | 0.00 | 0.00 | 0.00 | 72 | 1015.5 |